UMMENDORF Weather Reports


Display with metric or nautical units.
time (UTC)temp
F
wind
direction
speed
MPH
gust
MPH
rain 1hr
in
rain 24hr
in
rain mn
in
humidity
%
barometer
mb
20260507143212 58 291 8.0 0.0 0.00 0.00 0.06 51 1015.5
20260507140210 58 355 10.0 0.0 0.00 0.00 0.06 50 1015.4
20260507133210 56 279 11.0 0.0 0.00 0.00 0.06 52 1015.5
20260507130210 55 355 9.0 0.0 0.00 0.00 0.06 54 1015.5
20260507123210 54 304 9.0 0.0 0.00 0.00 0.06 55 1015.4
20260507120211 52 283 3.0 0.0 0.00 0.00 0.06 62 1015.4
20260507113210 51 202 0.0 0.0 0.00 0.00 0.06 63 1015.5
20260507110210 51 20 0.0 0.0 0.00 0.00 0.05 61 1015.5
20260507103216 51 341 1.0 0.0 0.00 0.00 0.03 58 1015.5
20260507100212 53 280 8.0 0.0 0.00 0.00 0.03 56 1015.4
20260507093211 52 252 9.0 0.0 0.00 0.00 0.03 59 1015.2
20260507090211 51 211 11.0 0.0 0.00 0.00 0.03 63 1015.0
20260507083212 50 219 14.0 0.0 0.00 0.00 0.03 66 1014.8
20260507080211 49 220 12.0 0.0 0.00 0.00 0.03 66 1014.8
20260507073212 49 236 11.0 0.0 0.00 0.00 0.02 66 1014.4
20260507070212 48 219 10.0 0.0 0.00 0.00 0.02 66 1014.2
20260507063211 48 240 12.0 0.0 0.00 0.00 0.02 65 1014.1
20260507060211 48 221 12.0 0.0 0.00 0.00 0.00 64 1013.8
20260507053211 48 211 11.0 0.0 0.00 0.00 0.00 64 1013.5
20260507050213 47 223 11.0 0.0 0.00 0.00 0.00 63 1013.2
20260507043211 47 229 12.0 0.0 0.00 0.00 0.00 62 1012.8
20260507040216 47 225 9.0 0.0 0.00 0.00 0.00 61 1012.5
20260507033211 47 209 14.0 0.0 0.00 0.00 0.00 61 1012.4
20260507030211 47 244 9.0 0.0 0.00 0.00 0.00 61 1012.2
20260507023211 47 235 16.0 0.0 0.00 0.00 0.00 62 1012.0
20260507020211 47 234 14.0 0.0 0.00 0.00 0.00 62 1011.9
20260507013212 47 265 10.0 0.0 0.00 0.00 0.00 63 1011.8
20260507010211 47 207 8.0 0.0 0.00 0.00 0.00 62 1011.8
20260507003209 47 204 9.0 0.0 0.00 0.00 0.00 62 1011.7
20260507000209 47 232 11.0 0.0 0.00 0.00 0.00 63 1011.7
20260506233209 47 247 11.0 0.0 0.00 0.00 0.00 64 1011.5
20260506230209 47 248 8.0 0.0 0.00 0.00 0.00 63 1011.4
20260506223209 47 220 4.0 0.0 0.00 0.00 0.00 63 1011.4
20260506213209 48 233 13.0 0.0 0.00 0.00 0.08 64 1011.0
20260506210210 48 240 6.0 0.0 0.00 0.00 0.08 62 1010.7
20260506203210 49 224 12.0 0.0 0.00 0.00 0.08 63 1010.8
20260506200210 49 195 10.0 0.0 0.00 0.00 0.08 63 1010.5
20260506193215 49 231 10.0 0.0 0.00 0.00 0.08 63 1010.2
20260506190211 49 223 14.0 0.0 0.00 0.00 0.08 61 1009.7
20260506183209 50 211 12.0 0.0 0.00 0.00 0.08 62 1009.2
20260506180216 50 213 13.0 0.0 0.00 0.00 0.08 62 1009.2
20260506173210 50 246 15.0 0.0 0.00 0.00 0.08 61 1008.9
20260506170215 51 256 14.0 0.0 0.00 0.00 0.08 60 1008.5
20260506163210 51 224 11.0 0.0 0.00 0.00 0.08 62 1008.4
20260506160210 51 260 12.0 0.0 0.00 0.00 0.08 63 1008.2
20260506153210 51 256 29.0 0.0 0.00 0.00 0.07 62 1007.8
20260506150210 53 219 26.0 0.0 0.00 0.00 0.04 60 1007.0